Jackson, MN

1:29 PM CST on February 25, 2017 (GMT -0600)
Jackson Municipal

Weather History for KMJQ - October, 2012

Change the Weather History Date:

Thursday, October 11, 2012

  Actual Average Record
Temperature  
Mean Temperature 42 °F -  
Max Temperature 51 °F 59 °F 86 °F (2015)
Min Temperature 30 °F 38 °F 28 °F (2014)
Degree Days  
Heating Degree Days 24    
Moisture  
Dew Point 26 °F    
Average Humidity 49    
Maximum Humidity 66    
Minimum Humidity 31    
Precipitation  
Precipitation 0.00 in - - ()
Sea Level Pressure  
Sea Level Pressure 30.13 in    
Wind  
Wind Speed 16 mph (NNW)    
Max Wind Speed 22 mph    
Max Gust Speed 29 mph    
Visibility 10 miles    
Events      
Averages and records for this station are not official NWS values.
T = Trace of Precipitation, MM = Missing Value Source: NWS Daily Summary

Daily Weather History Graph

Daily Weather History Graph

Search for Another Location

Airport or City:

Trip Planner

Search our weather history database for the weather conditions in past years. The results will help you decide how hot, cold, wet, or windy it might be!

Date:

Astronomy

Oct. 11, 2012 Rise Set
Actual Time 7:29 AM CDT 6:42 PM CDT
Civil Twilight 7:01 AM CDT 7:11 PM CDT
Nautical Twilight 6:27 AM CDT 7:44 PM CDT
Astronomical Twilight 5:54 AM CDT 8:17 PM CDT
Moon 3:01 AM CDT (10/11) 4:25 PM CDT (10/11)
Length of Visible Light 12h 10m
Length of Day
11h 12m
Waning Crescent, 18% of the Moon is Illuminated
Oct 11
Waning Crescent
Oct 15
New
Oct 21
First Quarter
Oct 29
Full
Nov 6
Last Quarter

Hourly Weather History & Observations

Time (CDT) Temp. Windchill Dew Point Humidity Pressure Visibility Wind Dir Wind Speed Gust Speed Precip Events Conditions
12:13 AM 51.8 °F - 28.4 °F 41% 29.89 in 10.0 mi SW 19.6 mph 28.8 mph N/A   Clear
12:34 AM 51.8 °F - 28.4 °F 41% 29.89 in 10.0 mi SW 21.9 mph 25.3 mph N/A   Clear
12:53 AM 51.8 °F - 26.6 °F 38% 29.89 in 10.0 mi SW 21.9 mph 25.3 mph N/A   Clear
1:13 AM 51.8 °F - 28.4 °F 41% 29.88 in 10.0 mi SW 18.4 mph 28.8 mph N/A   Clear
1:53 AM 51.8 °F - 28.4 °F 41% 29.88 in 10.0 mi SW 20.7 mph 26.5 mph N/A   Clear
2:13 AM 51.8 °F - 28.4 °F 41% 29.88 in 10.0 mi SW 18.4 mph 25.3 mph N/A   Clear
2:53 AM 51.8 °F - 26.6 °F 38% 29.89 in 10.0 mi SW 18.4 mph 24.2 mph N/A   Clear
3:13 AM 51.8 °F - 26.6 °F 38% 29.88 in 10.0 mi SW 17.3 mph 24.2 mph N/A   Clear
3:34 AM 51.8 °F - 26.6 °F 38% 29.88 in 10.0 mi SW 19.6 mph 27.6 mph N/A   Clear
3:53 AM 51.8 °F - 26.6 °F 38% 29.89 in 10.0 mi SW 18.4 mph 26.5 mph N/A   Clear
4:13 AM 51.8 °F - 26.6 °F 38% 29.89 in 10.0 mi SW 15.0 mph 25.3 mph N/A   Clear
4:34 AM 51.8 °F - 26.6 °F 38% 29.91 in 10.0 mi WSW 16.1 mph 23.0 mph N/A   Clear
4:53 AM 51.8 °F - 26.6 °F 38% 29.91 in 10.0 mi WSW 13.8 mph - N/A   Clear
5:14 AM 51.8 °F - 26.6 °F 38% 29.92 in 10.0 mi WSW 15.0 mph 19.6 mph N/A   Clear
5:34 AM 50.0 °F - 26.6 °F 40% 29.94 in 10.0 mi WSW 15.0 mph 18.4 mph N/A   Clear
6:14 AM 50.0 °F - 28.4 °F 43% 29.96 in 10.0 mi West 10.4 mph - N/A   Clear
6:33 AM 48.2 °F - 28.4 °F 46% 29.98 in 10.0 mi WNW 10.4 mph - N/A   Clear
6:53 AM 46.4 °F 40.4 °F 30.2 °F 53% 30.00 in 10.0 mi NNW 13.8 mph 26.5 mph N/A   Clear
7:14 AM 44.6 °F 37.2 °F 30.2 °F 57% 30.01 in 10.0 mi NNW 17.3 mph - N/A   Clear
7:33 AM 42.8 °F 35.8 °F 30.2 °F 61% 30.02 in 10.0 mi NNW 13.8 mph 21.9 mph N/A   Clear
7:53 AM 42.8 °F 36.2 °F 30.2 °F 61% 30.03 in 10.0 mi NNW 12.7 mph 26.5 mph N/A   Clear
8:14 AM 42.8 °F 37.5 °F 30.2 °F 61% 30.06 in 10.0 mi North 9.2 mph 19.6 mph N/A   Mostly Cloudy
8:33 AM 42.8 °F 35.1 °F 32.0 °F 66% 30.06 in 10.0 mi North 16.1 mph 21.9 mph N/A   Overcast
8:53 AM 42.8 °F 33.8 °F 32.0 °F 66% 30.06 in 10.0 mi North 21.9 mph 27.6 mph N/A   Mostly Cloudy
9:13 AM 42.8 °F 34.5 °F 32.0 °F 66% 30.08 in 10.0 mi North 18.4 mph 27.6 mph N/A   Mostly Cloudy
9:33 AM 42.8 °F 34.0 °F 32.0 °F 66% 30.09 in 10.0 mi North 20.7 mph 27.6 mph N/A   Scattered Clouds
9:54 AM 42.8 °F 34.8 °F 32.0 °F 66% 30.11 in 10.0 mi North 17.3 mph 25.3 mph N/A   Mostly Cloudy
10:13 AM 42.8 °F 34.8 °F 32.0 °F 66% 30.13 in 10.0 mi North 17.3 mph 25.3 mph N/A   Overcast
10:33 AM 42.8 °F 34.8 °F 32.0 °F 66% 30.13 in 10.0 mi North 17.3 mph 25.3 mph N/A   Mostly Cloudy
10:54 AM 42.8 °F 34.8 °F 32.0 °F 66% 30.15 in 10.0 mi North 17.3 mph 23.0 mph N/A   Overcast
11:13 AM 44.6 °F 37.4 °F 32.0 °F 61% 30.15 in 10.0 mi North 16.1 mph 21.9 mph N/A   Overcast
11:33 AM 44.6 °F 36.6 °F 30.2 °F 57% 30.16 in 10.0 mi NNE 19.6 mph 25.3 mph N/A   Mostly Cloudy
11:53 AM 44.6 °F 37.4 °F 30.2 °F 57% 30.17 in 10.0 mi NNE 16.1 mph - N/A   Mostly Cloudy
12:13 PM 44.6 °F 36.6 °F 28.4 °F 53% 30.17 in 10.0 mi NNE 19.6 mph 23.0 mph N/A   Mostly Cloudy
12:53 PM 44.6 °F 37.2 °F 26.6 °F 49% 30.19 in 10.0 mi North 17.3 mph 24.2 mph N/A   Overcast
1:14 PM 44.6 °F 37.8 °F 26.6 °F 49% 30.20 in 10.0 mi North 15.0 mph 18.4 mph N/A   Overcast
1:33 PM 46.4 °F 40.1 °F 26.6 °F 46% 30.18 in 10.0 mi North 15.0 mph 23.0 mph N/A   Mostly Cloudy
1:53 PM 46.4 °F 40.1 °F 28.4 °F 50% 30.18 in 10.0 mi North 15.0 mph 26.5 mph N/A   Scattered Clouds
2:14 PM 46.4 °F 40.1 °F 28.4 °F 50% 30.20 in 10.0 mi North 15.0 mph 25.3 mph N/A   Scattered Clouds
2:33 PM 46.4 °F 40.4 °F 28.4 °F 50% 30.22 in 10.0 mi North 13.8 mph 20.7 mph N/A   Scattered Clouds
2:54 PM 46.4 °F 40.7 °F 26.6 °F 46% 30.23 in 10.0 mi North 12.7 mph 23.0 mph N/A   Mostly Cloudy
3:14 PM 48.2 °F - 26.6 °F 43% 30.23 in 10.0 mi North 16.1 mph 20.7 mph N/A   Scattered Clouds
3:53 PM 46.4 °F 41.1 °F 23.0 °F 40% 30.24 in 10.0 mi NNW 11.5 mph 21.9 mph N/A   Mostly Cloudy
4:14 PM 46.4 °F 40.4 °F 23.0 °F 40% 30.24 in 10.0 mi North 13.8 mph 18.4 mph N/A   Overcast
5:14 PM 44.6 °F 39.2 °F 19.4 °F 37% 30.25 in 10.0 mi North 10.4 mph - N/A   Overcast
5:33 PM 44.6 °F 40.2 °F 19.4 °F 37% 30.25 in 10.0 mi North 8.1 mph - N/A   Overcast
5:53 PM 44.6 °F 40.7 °F 19.4 °F 37% 30.25 in 10.0 mi North 6.9 mph - N/A   Overcast
6:33 PM 44.6 °F 39.2 °F 15.8 °F 31% 30.27 in 10.0 mi North 10.4 mph 17.3 mph N/A   Overcast
6:53 PM 42.8 °F 38.6 °F 14.0 °F 31% 30.27 in 10.0 mi North 6.9 mph - N/A   Overcast
7:13 PM 42.8 °F 39.3 °F 14.0 °F 31% 30.28 in 10.0 mi North 5.8 mph - N/A   Scattered Clouds
7:34 PM 42.8 °F 38.6 °F 15.8 °F 34% 30.30 in 10.0 mi NNW 6.9 mph - N/A   Clear
8:13 PM 41.0 °F 37.1 °F 19.4 °F 42% 30.32 in 10.0 mi NNW 5.8 mph - N/A   Clear
8:34 PM 41.0 °F 35.8 °F 19.4 °F 42% 30.32 in 10.0 mi NNW 8.1 mph - N/A   Clear
8:53 PM 37.4 °F 31.4 °F 19.4 °F 48% 30.33 in 10.0 mi NNW 8.1 mph - N/A   Clear
9:13 PM 35.6 °F 28.6 °F 19.4 °F 52% 30.34 in 10.0 mi NNW 9.2 mph - N/A   Clear
9:34 PM 35.6 °F 29.2 °F 19.4 °F 52% 30.35 in 10.0 mi NNW 8.1 mph - N/A   Clear
9:53 PM 33.8 °F 28.6 °F 19.4 °F 56% 30.35 in 10.0 mi NNW 5.8 mph - N/A   Clear
10:33 PM 33.8 °F 27.7 °F 19.4 °F 56% 30.37 in 10.0 mi NNW 6.9 mph - N/A   Clear
10:53 PM 32.0 °F 26.4 °F 19.4 °F 60% 30.38 in 10.0 mi NNW 5.8 mph - N/A   Clear
11:14 PM 32.0 °F 25.6 °F 19.4 °F 60% 30.39 in 10.0 mi NNW 6.9 mph - N/A   Clear
11:33 PM 32.0 °F 26.4 °F 17.6 °F 55% 30.39 in 10.0 mi NNW 5.8 mph - N/A   Clear
11:53 PM 30.2 °F 25.4 °F 19.4 °F 64% 30.39 in 10.0 mi NNW 4.6 mph - N/A   Clear